Location: Izdebno
(52.6670°N, 16.2170°E)
Time: 07:11:43
(UTC+01:00)

Tiros 1 despin weight - All Passes

Search period start: 06 February 2023 00:00
Search period end: 16 February 2023 00:00
Orbit: 589 x 636 km, 48.2° (Epoch: 05 February)

Date Brightness Start Highest point End Pass type
(mag) Time Alt. Az. Time Alt. Az. Time Alt. Az.
06 Feb - 15:15:34 10° SSW 15:19:17 24° SSE 15:22:57 10° E daylight
06 Feb - 16:55:45 10° WSW 17:00:06 45° S 17:04:25 10° E daylight
06 Feb - 18:36:51 10° W 18:41:09 43° S 18:45:24 10° ESE visible
06 Feb - 20:18:30 10° W 20:21:55 21° SSW 20:25:17 10° SSE visible
07 Feb - 13:51:21 10° SSE 13:53:14 12° SE 13:55:07 10° ESE daylight
07 Feb - 15:29:38 10° SW 15:33:44 33° SSE 15:37:49 10° E daylight
07 Feb - 17:10:18 10° WSW 17:14:43 48° S 17:19:04 10° ESE daylight
07 Feb - 18:51:33 10° W 18:55:42 36° SSW 18:59:47 10° SE visible
07 Feb - 20:33:51 10° WSW 20:36:15 14° SW 20:38:38 10° S visible
08 Feb - 14:04:18 10° SSW 14:07:33 19° SSE 14:10:47 10° ESE daylight
08 Feb - 15:43:57 10° SW 15:48:16 41° SSE 15:52:32 10° E daylight
08 Feb - 17:24:55 10° W 17:29:19 47° S 17:33:38 10° ESE visible
08 Feb - 19:06:22 10° W 19:10:11 27° SSW 19:13:58 10° SSE visible
09 Feb - 14:18:05 10° SSW 14:21:57 27° SSE 14:25:48 10° E daylight
09 Feb - 15:58:26 10° WSW 16:02:50 47° S 16:07:11 10° E daylight
09 Feb - 17:39:34 10° W 17:43:53 41° SSW 17:48:07 10° ESE visible
09 Feb - 19:21:22 10° WSW 19:24:35 19° SSW 19:27:46 10° SSE visible
10 Feb - 12:53:23 10° S 12:55:51 14° SE 12:58:20 10° ESE daylight
10 Feb - 14:32:13 10° SW 14:36:26 35° SSE 14:40:36 10° E daylight
10 Feb - 16:12:59 10° WSW 16:17:26 49° S 16:21:48 10° ESE daylight
10 Feb - 17:54:18 10° W 17:58:24 33° SSW 18:02:27 10° SE visible
10 Feb - 19:36:57 10° WSW 19:38:52 13° SW 19:40:48 10° SSW visible
11 Feb - 13:06:41 10° SSW 13:10:11 21° SSE 13:13:40 10° E daylight
11 Feb - 14:46:35 10° WSW 14:50:58 43° SSE 14:55:18 10° E daylight
11 Feb - 16:27:36 10° W 16:32:00 46° S 16:36:21 10° ESE daylight
11 Feb - 18:09:07 10° W 18:12:51 25° SSW 18:16:30 10° SSE visible
12 Feb - 11:43:42 10° SE 11:44:11 10° SE 11:44:40 10° SE daylight
12 Feb - 13:20:34 10° SW 13:24:35 29° SSE 13:28:35 10° E daylight
12 Feb - 15:01:04 10° WSW 15:05:31 48° S 15:09:55 10° ESE daylight
12 Feb - 16:42:16 10° W 16:46:32 39° SSW 16:50:46 10° SE daylight
12 Feb - 18:24:13 10° WSW 18:27:11 17° SW 18:30:08 10° S visible
13 Feb - 11:55:32 10° S 11:58:26 16° SE 12:01:19 10° ESE daylight
13 Feb - 13:34:46 10° SW 13:39:04 38° SSE 13:43:19 10° E daylight
13 Feb - 15:15:38 10° WSW 15:20:06 49° S 15:24:30 10° ESE daylight
13 Feb - 16:56:59 10° W 17:01:02 31° SSW 17:05:01 10° SE daylight
13 Feb - 18:40:17 10° WSW 18:41:26 11° SW 18:42:35 10° SSW visible
14 Feb - 12:09:03 10° SSW 12:12:46 24° SSE 12:16:28 10° E daylight
14 Feb - 13:49:10 10° WSW 13:53:35 45° S 13:57:59 10° E daylight
14 Feb - 15:30:15 10° W 15:34:39 44° S 15:38:59 10° ESE daylight
14 Feb - 17:11:51 10° W 17:15:26 23° SSW 17:18:58 10° SSE daylight
15 Feb - 10:44:56 10° SSE 10:46:42 12° SE 10:48:28 10° ESE daylight
15 Feb - 12:23:02 10° SW 12:27:11 32° SSE 12:31:17 10° E daylight
15 Feb - 14:03:40 10° WSW 14:08:09 49° S 14:12:34 10° ESE daylight
15 Feb - 15:44:54 10° W 15:49:10 37° SSW 15:53:21 10° SE daylight
15 Feb - 17:27:04 10° WSW 17:29:45 15° SW 17:32:22 10° S daylight
